Regional Weather Roundup
Issued by NWS Mobile, AL

Home | Current Version | Previous Version | Text Only | Print | Product List | Glossary On
Versions: 1 2 3 4 5 6 7 8 9 10 11 12 13 14 15 16 17 18 19 20 21 22 23 24 25 26 27
000
ASUS44 KMOB 300112
RWRMOB
REGIONAL WEATHER ROUNDUP
NATIONAL WEATHER SERVICE MOBILE AL
800 PM CDT FRI JUL 29 2016

NOTE: "FAIR" INDICATES FEW OR NO CLOUDS BELOW 12,000 FEET WITH NO
      SIGNIFICANT WEATHER AND/OR OBSTRUCTIONS TO VISIBILITY.

  * THESE STATIONS ARE PART OF THE UNIVERSITY OF SOUTH ALABAMA
    MESONET AND ARE NOT UNDER NWS OR FAA QUALITY CONTROL.

ALZ061>064-300200-
COASTAL ALABAMA

CITY           SKY/WX    TMP DP  RH WIND       PRES   REMARKS
MOBILE REG APT PTCLDY    81  73  76 E6        30.01S
BROOKLEY FIELD CLEAR     79  75  87 NE3       30.02R
USA CAMPUS*    NOT AVBL
DOG RIVER*     NOT AVBL


CITY           SKY/WX    TMP DP  RH WIND       PRES   REMARKS
MOUNT VERNON*  NOT AVBL
SARALAND*      NOT AVBL
BAY MINETTE*   NOT AVBL
LOXLEY*        NOT AVBL
ROBERTSDALE*   NOT AVBL
FAIRHOPE*      NOT AVBL
ELBERTA*       NOT AVBL
FOLEY*         NOT AVBL
GRAND BAY*     NOT AVBL
DAUPHIN ISLND* NOT AVBL
BON SCOUR NWR* NOT AVBL
GULF SHORES    PTCLDY    83  78  87 CALM      30.00S

$$

ALZ051>060-300200-
INTERIOR SOUTHWEST AND SOUTH CENTRAL ALABAMA

CITY           SKY/WX    TMP DP  RH WIND       PRES   REMARKS
GREENVILLE     CLOUDY    83  72  69 SW7       30.00R
EVERGREEN      CLOUDY    79  72  79 S3        30.01R
CASTLEBERRY*   NOT AVBL
ATMORE*        NOT AVBL
DIXIE*         NOT AVBL
ANDALUSIA/OPP  CLOUDY    85  75  72 CALM      30.00S
ANDALUSIA*     NOT AVBL
FLORALA APT    CLOUDY    79  74  84 S3        30.03R
FLORALA*       NOT AVBL

$$

FLZ001>006-300200-
WESTERN FLORIDA PANHANDLE

CITY           SKY/WX    TMP DP  RH WIND       PRES   REMARKS
PENSACOLA      PTCLDY    80  75  84 CALM      30.00S
NAS PENSACOLA  CLEAR     83  74  74 S5        30.00S
MILTON         MOCLDY    81  79  94 CALM      30.01S
WHTNG S FIELD  PTCLDY    79  78  97 CALM      30.01R


CITY           SKY/WX    TMP DP  RH WIND       PRES   REMARKS
WALNUT HILL*   NOT AVBL
JAY*           NOT AVBL
DUKE FIELD     PTCLDY    80  75  86 W1        30.01R
CRESTVIEW      PTCLDY    80  73  79 SW3       30.02R
VALPARAISO     MOCLDY    84  74  71 SW2       30.01R
DESTIN         CLEAR     88  77  69 SW6       30.00R HX 100

$$

MSZ076-079-300200-
INTERIOR SOUTHEAST MISSISSIPPI

CITY           SKY/WX    TMP DP  RH WIND       PRES   REMARKS
LEAKESVILLE*   NOT AVBL
AGRICOLA*      NOT AVBL

$$

MARINE OBSERVATIONS

STATION/POSITION TIME  TEMP    WIND        PRES    WAVE
                       AIR SEA DIR/SP/G            HT/PER
                 (UTC) (F)     (DEG/KT/KT) (MB)    (FT/S)
PASCAGOULA       0012   86     180/  7/ 10   N/A
PETIT BOIS ISLND 0012   86     180/  5/  7   N/A
GRAND BAY        2345   86     180/  6     1017.0S
KATRINA CUT      0000   87        CALM     1016.6R
CEDAR POINT      0000   85     250/  5     1015.6S
E DAUPHIN ISLAND 0000   86     290/  5/  6 1015.7R
MIDDLE BAY LIGHT 0000   86     220/  8     1015.9R
USCG MOBILE BAY  0000      87                N/A
STATE DOCKS      0000      89                N/A
MEAHER PARK      0000   85     250/  4     1016.3R
WEEKS BAY        2300   89                   N/A
FORT MORGAN      0012   86     260/  6/  7   N/A
12 S ORANGE BCH  0050   86 89  220/  8/  8 1016.2R   1/ 7
PENSACOLA BAY    0000      88                N/A
64 S DAUPHIN ISL 0000   85 88  190/ 10/ 12 1015.9R
67 S FORT MORGAN 0030   83     210/  8     1016.3S

$$

SELECTED LOCATIONS ACROSS THE REGION

CITY           SKY/WX    TMP DP  RH WIND       PRES   REMARKS
NEW ORLEANS    MOCLDY    82  74  76 S5        29.99R
GULFPORT       CLEAR     83  75  77 S3        29.98R
PASCAGOULA AP  CLEAR     82  79  90 CALM      29.99S
PASCAGOULA*    NOT AVBL
HATTIESBURG    CLEAR     83  75  77 CALM      30.00R
LAUREL         CLOUDY    79  75  89 CALM      30.01R
MERIDIAN       CLEAR     85  74  69 SW3       29.98S
JACKSON        PTCLDY    83  74  74 S5        29.97F
MONTGOMERY     PTCLDY    86  72  62 SW5       29.98R
TROY           CLOUDY    80  74  81 S6        30.01R
KINSTON*       NOT AVBL
GENEVA*        NOT AVBL
ASHFORD*       NOT AVBL
DOTHAN         PTCLDY    81  73  76 SW7       30.04R
PANAMA CITY    CLEAR     83  75  77 SW5       30.01R

$$





USA.gov is the U.S. government's official web portal to all federal, state and local government web resources and services.